Regional Weather Roundup
Issued by NWS State College, PA

Home | Current Version | Previous Version | Text Only | Print | Product List | Glossary On
Versions: 1 2 3 4 5 6 7 8 9 10 11 12 13 14 15 16 17 18 19 20 21 22 23 24 25 26 27 28 29 30 31 32 33 34 35 36 37 38 39 40 41 42 43 44 45 46 47 48 49 50
000
ASUS41 KCTP 291910
RWRCTP

REGIONAL WEATHER ROUNDUP
NATIONAL WEATHER SERVICE STATE COLLEGE PA
300 PM EDT FRI JUL 29 2016

Note: "fair" indicates few or no clouds below 12,000 feet with no
significant weather and/or obstructions to visibility.

* = STATION THAT DOES NOT REPORT PRECIPITATION /E.G. RAIN...SNOW...ETC/
    THUNDER OR FOG.

PAZ002>004-007>009-013>016-020>023-029>032-292000-
WESTERN PENNSYLVANIA

CITY           SKY/WX    TMP DP  RH WIND       PRES   REMARKS
ERIE           SUNNY     81  66  60 NE14      29.95S
MEADVILLE      CLOUDY    76  65  68 VRB7G17   29.97R
FRANKLIN*      CLOUDY    73  64  73 NE3       29.98F
NEW CASTLE     FAIR      83  66  56 SW6       29.95F
BEAVER COUNTY  PTSUNNY   82  68  61 CALM      29.96F
BUTLER*        MOSUNNY   82  66  57 SW9       29.98F
PITTSBURGH INT PTSUNNY   80  65  59 CALM      29.96F
PITTSBURGH     MOSUNNY   80  64  58 CALM      29.96F
INDIANA*       MOSUNNY   81  68  65 VRB6      29.99F
LATROBE        MOSUNNY   81  68  65 VRB6      29.97F
WASHINGTON CO* PTSUNNY   82  66  57 SW5       29.97F
$$

PAZ004>006-010>012-017>019-024>028-033>037-041-042-045-046-049>053-292000-
CENTRAL PENNSYLVANIA

CITY           SKY/WX    TMP DP  RH WIND       PRES   REMARKS
BRADFORD       CLOUDY    77  63  61 N8        29.99S
DUBOIS         MOSUNNY   80  63  55 VRB5      29.96F
CLEARFIELD     MOSUNNY   88  65  46 SW9       29.95S
JOHNSTOWN      MOSUNNY   78  61  55 NW7       30.00F
ALTOONA        MOSUNNY   83  65  54 VRB3      29.95F
STATE COLLEGE  MOSUNNY   82  66  57 SE5       29.92F
WILLIAMSPORT   PTSUNNY   90  58  33 N6        29.86R
SELINSGROVE    SUNNY     89  66  46 VRB6      29.87F
FT INDIANTOWN  MOSUNNY   86  68  54 VRB6      29.88R
CAPITAL CITY   PTSUNNY   90  66  45 N6        29.87S
HARRISBURG     MOSUNNY   86  69  56 CALM      29.86S
YORK           MOSUNNY   87  67  51 NE8       29.88S
$$

PAZ038>040-043-044-047-048-054-055-060>062-067>071-292000-
EASTERN PENNSYLVANIA

CITY           SKY/WX    TMP DP  RH WIND       PRES   REMARKS
SCRANTON       CLOUDY    87  64  46 N7        29.88S
MOUNT POCONO   MOSUNNY   81  62  52 NE8       29.94R
ALLENTOWN      MOSUNNY   87  67  51 VRB5      29.86R
QUAKERTOWN*    PTCLDY    84  68  58 N5        29.88R
READING        PTSUNNY   87  67  51 CALM      29.86R
LANCASTER      MOSUNNY   85  68  56 N12       29.88R
COATESVILLE    PTCLDY    82  70  65 NW9       29.90R
POTTSTOWN      PTSUNNY   86  67  52 N8        29.88R
BLUE BELL      PTSUNNY   82  70  65 N3        29.85R
DOYLESTOWN     PTSUNNY   85  70  60 VRB6      29.85R
WILLOW GROVE   NOT AVBL
NORTH PHILA    PTSUNNY   85  69  58 NE7       29.86R
PHILADELPHIA   PTSUNNY   86  68  54 NE6       29.84R
$$




USA.gov is the U.S. government's official web portal to all federal, state and local government web resources and services.